Location: Franzen
(48.6167°N, 15.3833°E)
Time: 03:07:44
(UTC+00:00)

Transit 2A - Pass Details

Date: 03 August 2021
Orbit: 594 x 964 km, 66.7° (Epoch: 21 September)

Event Time Altitude Azimuth Distance (km) Brightness Sun altitude
Rises 04:05:52 0° 184° (S) 2,830 8.7 3.7°
Reaches altitude 10° 04:08:16 10° 173° (S) 1,951 8.0 4.1°
Maximum altitude 04:12:02 29° 112° (ESE) 1,153 7.7 4.7°
Drops below altitude 10° 04:16:03 10° 53° (NE) 2,082 10.1 5.3°
Sets 04:18:40 0° 43° (NE) 3,058 10.4 5.7°
